Weather History for Three Rivers, MI

Change the Weather History Date:

Saturday, December 8, 2012

  Actual Average Record
Temperature  
Mean Temperature 38 °F -  
Max Temperature 43 °F 38 °F 64 °F (1966)
Min Temperature 32 °F 25 °F 1 °F (1977)
Degree Days  
Heating Degree Days 28    
Moisture  
Dew Point 35 °F    
Average Humidity 90    
Maximum Humidity 95    
Minimum Humidity 83    
Precipitation  
Precipitation 0.00 in - - ()
Sea Level Pressure  
Sea Level Pressure 29.96 in    
Wind  
Wind Speed 3 mph (NNE)    
Max Wind Speed 10 mph    
Max Gust Speed 16 mph    
Visibility 6 miles    
Events Rain    
Averages and records for this station are not official NWS values.
T = Trace of Precipitation, MM = Missing Value Source: NWS Daily Summary

Daily Weather History Graph

Daily Weather History Graph

Search for Another Location

Airport:

Trip Planner

Search our weather history database for the weather conditions in past years. The results will help you decide how hot, cold, wet, or windy it might be!

Date:

Astronomy

Dec. 08, 2012 Rise Set
Actual Time 7:58 AM EST 5:10 PM EST
Civil Twilight 7:26 AM EST 5:42 PM EST
Nautical Twilight 6:51 AM EST 6:17 PM EST
Astronomical Twilight 6:17 AM EST 6:51 PM EST
Moon 2:17 AM EST (12/8) 1:44 PM EST (12/8)
Length of Visible Light 10h 15m
Length of Day
9h 12m
Waning Crescent, 28% of the Moon is Illuminated
Dec 8
Waning Crescent
Dec 13
New
Dec 20
First Quarter
Dec 28
Full
Jan 4
Last Quarter

Hourly Weather History & Observations

Time (EST) Temp. Windchill Dew Point Humidity Pressure Visibility Wind Dir Wind Speed Gust Speed Precip Events Conditions
12:15 AM 41.7 °F - 40.3 °F 95% 29.86 in 2.0 mi Calm Calm - N/A Rain Rain
12:35 AM 41.9 °F - 40.3 °F 94% 29.86 in 2.0 mi Calm Calm - N/A Rain Rain
12:55 AM 41.5 °F - 40.1 °F 95% 29.84 in 1.8 mi Calm Calm - N/A Rain Light Rain
1:14 AM 41.5 °F - 40.1 °F 95% 29.84 in 2.0 mi Calm Calm - N/A Rain Rain
1:35 AM 41.7 °F - 40.3 °F 95% 29.84 in 2.0 mi Calm Calm - N/A   Light Drizzle
1:55 AM 42.1 °F - 40.6 °F 95% 29.84 in 2.0 mi Calm Calm - N/A Rain Light Rain
2:14 AM 41.7 °F - 40.3 °F 95% 29.84 in 1.8 mi Calm Calm - N/A Rain Light Rain
2:35 AM 41.5 °F - 40.1 °F 95% 29.84 in 2.0 mi Calm Calm - N/A Rain Light Rain
2:55 AM 41.9 °F - 40.5 °F 95% 29.84 in 2.0 mi Calm Calm - N/A Rain Light Rain
3:14 AM 42.1 °F - 40.6 °F 95% 29.84 in 1.8 mi Calm Calm - N/A Rain Light Rain
3:35 AM 41.5 °F - 40.1 °F 95% 29.83 in 1.8 mi Calm Calm - N/A   Drizzle
3:55 AM 41.5 °F - 40.3 °F 95% 29.83 in 1.8 mi Calm Calm - N/A Rain Rain
4:15 AM 41.5 °F - 40.1 °F 95% 29.83 in 1.8 mi Calm Calm - N/A Rain Rain
4:35 AM 41.4 °F - 40.1 °F 95% 29.82 in 2.0 mi Calm Calm - N/A Rain Light Rain
4:55 AM 42.6 °F - 41.4 °F 95% 29.82 in 2.0 mi Calm Calm - N/A   Drizzle
5:15 AM 43.7 °F - 42.3 °F 95% 29.82 in 2.0 mi Calm Calm - N/A Rain Rain
5:35 AM 43.3 °F - 41.4 °F 93% 29.82 in 1.8 mi Calm Calm - N/A Rain Heavy Rain
5:54 AM 43.0 °F - 41.0 °F 93% 29.82 in 1.5 mi Calm Calm - N/A Rain Light Rain
6:15 AM 41.5 °F - 39.9 °F 94% 29.83 in 1.5 mi Calm Calm - N/A Rain Light Rain
6:35 AM 42.8 °F - 40.8 °F 93% 29.84 in 1.8 mi Calm Calm - N/A Rain Light Rain
6:54 AM 42.4 °F - 40.6 °F 93% 29.85 in 1.8 mi Calm Calm - N/A   Drizzle
7:15 AM 42.4 °F - 40.3 °F 92% 29.84 in 1.8 mi Calm Calm - N/A Rain Light Rain
7:35 AM 42.3 °F 40.5 °F 40.5 °F 93% 29.85 in 2.0 mi NNW 3.5 mph - N/A Rain Light Rain
7:54 AM 41.9 °F 40.0 °F 40.1 °F 93% 29.86 in 3.0 mi NNW 3.5 mph - N/A   Overcast
8:15 AM 41.9 °F - 40.1 °F 93% 29.86 in 3.0 mi Calm Calm - N/A Rain Light Rain
8:35 AM 39.2 °F 33.6 °F 37.0 °F 92% 29.87 in 4.0 mi North 8.1 mph 16.1 mph N/A Rain Light Rain
8:55 AM 37.4 °F 32.8 °F 35.8 °F 94% 29.87 in 2.5 mi NNE 5.8 mph - N/A   Overcast
9:15 AM 37.2 °F 31.2 °F 35.6 °F 94% 29.89 in 3.0 mi NNE 8.1 mph - N/A   Light Drizzle
9:35 AM 36.1 °F 29.9 °F 34.5 °F 94% 29.91 in 4.0 mi North 8.1 mph - N/A   Overcast
9:55 AM 36.0 °F 30.3 °F 34.3 °F 94% 29.92 in 3.0 mi North 6.9 mph - N/A   Overcast
10:15 AM 35.6 °F 29.9 °F 34.0 °F 94% 29.92 in 2.5 mi NNE 6.9 mph - N/A   Overcast
10:35 AM 35.2 °F 28.8 °F 33.4 °F 93% 29.93 in 4.0 mi NNE 8.1 mph - N/A   Overcast
10:55 AM 35.2 °F 29.5 °F 33.4 °F 93% 29.93 in 4.0 mi NNE 6.9 mph - N/A   Overcast
11:15 AM 35.4 °F 27.8 °F 33.6 °F 93% 29.94 in 7.0 mi NNE 10.4 mph - N/A   Overcast
11:35 AM 35.6 °F 29.2 °F 33.4 °F 92% 29.94 in 10.0 mi NNE 8.1 mph - N/A   Overcast
11:55 AM 35.6 °F 28.0 °F 33.1 °F 91% 29.94 in 10.0 mi NNE 10.4 mph - N/A   Overcast
12:14 PM 35.6 °F 29.2 °F 32.9 °F 90% 29.94 in 10.0 mi NNE 8.1 mph - N/A   Overcast
12:35 PM 35.8 °F 29.4 °F 32.9 °F 89% 29.95 in 10.0 mi North 8.1 mph - N/A   Overcast
12:55 PM 35.4 °F 29.0 °F 32.5 °F 89% 29.95 in 10.0 mi North 8.1 mph - N/A   Overcast
1:14 PM 35.6 °F 29.2 °F 32.5 °F 89% 29.95 in 10.0 mi NNE 8.1 mph - N/A   Overcast
1:35 PM 35.6 °F 29.2 °F 32.5 °F 89% 29.96 in 10.0 mi NNE 8.1 mph - N/A   Overcast
1:55 PM 35.2 °F 27.6 °F 32.0 °F 88% 29.97 in 10.0 mi North 10.4 mph - N/A   Overcast
2:15 PM 35.6 °F 29.2 °F 32.0 °F 87% 29.97 in 10.0 mi NNE 8.1 mph - N/A   Overcast
2:35 PM 35.6 °F 29.2 °F 32.2 °F 87% 29.98 in 10.0 mi North 8.1 mph - N/A   Overcast
2:55 PM 36.0 °F 30.3 °F 32.0 °F 86% 29.99 in 10.0 mi NE 6.9 mph - N/A   Overcast
3:35 PM 36.0 °F 32.1 °F 32.0 °F 86% 30.01 in 10.0 mi NNE 4.6 mph - N/A   Overcast
3:55 PM 36.0 °F 32.1 °F 32.0 °F 86% 30.02 in 10.0 mi NNE 4.6 mph - N/A   Overcast
4:15 PM 36.0 °F 32.1 °F 32.0 °F 86% 30.03 in 10.0 mi NNE 4.6 mph - N/A   Overcast
4:35 PM 36.0 °F 32.1 °F 32.0 °F 86% 30.03 in 10.0 mi NE 4.6 mph - N/A   Overcast
4:54 PM 35.8 °F 31.9 °F 31.8 °F 86% 30.04 in 10.0 mi NNE 4.6 mph - N/A   Overcast
5:15 PM 34.9 °F 32.0 °F 31.3 °F 87% 30.05 in 10.0 mi NNE 3.5 mph - N/A   Mostly Cloudy
5:35 PM 34.3 °F - 31.3 °F 89% 30.06 in 10.0 mi Calm Calm - N/A   Clear
5:54 PM 34.0 °F - 30.7 °F 88% 30.06 in 10.0 mi Calm Calm - N/A   Clear
6:15 PM 33.6 °F 29.4 °F 30.7 °F 89% 30.07 in 10.0 mi NNE 4.6 mph - N/A   Scattered Clouds
6:35 PM 34.2 °F 30.0 °F 30.7 °F 87% 30.07 in 10.0 mi NNE 4.6 mph - N/A   Mostly Cloudy
6:55 PM 34.0 °F 29.8 °F 30.2 °F 86% 30.08 in 10.0 mi NE 4.6 mph - N/A   Overcast
7:15 PM 34.2 °F 28.2 °F 30.2 °F 85% 30.09 in 10.0 mi NE 6.9 mph - N/A   Overcast
7:34 PM 34.3 °F 27.7 °F 29.8 °F 84% 30.09 in 10.0 mi NE 8.1 mph - N/A   Overcast
7:55 PM 34.0 °F 27.2 °F 29.7 °F 84% 30.10 in 10.0 mi ENE 8.1 mph - N/A   Overcast
8:15 PM 33.8 °F 27.0 °F 29.5 °F 84% 30.10 in 10.0 mi ENE 8.1 mph - N/A   Overcast
8:35 PM 33.8 °F 27.7 °F 29.8 °F 85% 30.10 in 10.0 mi ENE 6.9 mph - N/A   Overcast
8:55 PM 33.4 °F 25.9 °F 28.9 °F 84% 30.11 in 10.0 mi NE 9.2 mph - N/A   Overcast
9:15 PM 33.1 °F 26.1 °F 28.4 °F 83% 30.12 in 10.0 mi ENE 8.1 mph - N/A   Overcast
9:35 PM 32.9 °F 25.3 °F 28.2 °F 83% 30.11 in 10.0 mi NE 9.2 mph - N/A   Overcast
9:55 PM 32.9 °F 26.7 °F 28.4 °F 84% 30.13 in 10.0 mi ENE 6.9 mph - N/A   Overcast
10:15 PM 32.9 °F 24.7 °F 28.4 °F 84% 30.13 in 10.0 mi ENE 10.4 mph - N/A   Overcast
10:35 PM 32.5 °F 24.2 °F 28.0 °F 83% 30.12 in 10.0 mi ENE 10.4 mph - N/A   Overcast
10:55 PM 32.4 °F 24.0 °F 28.0 °F 84% 30.12 in 10.0 mi ENE 10.4 mph - N/A   Overcast
11:14 PM 32.2 °F 25.0 °F 28.0 °F 85% 30.13 in 10.0 mi ENE 8.1 mph - N/A   Overcast
11:35 PM 32.2 °F 25.8 °F 28.0 °F 85% 30.12 in 10.0 mi ENE 6.9 mph - N/A   Overcast
11:55 PM 32.0 °F 23.6 °F 27.5 °F 83% 30.13 in 10.0 mi ENE 10.4 mph - N/A   Overcast